Change the Weather History Date:

Wednesday, November 6, 2013

  Actual Average Record
Temperature  
Mean Temperature 35 °F 38 °F  
Max Temperature 49 °F 52 °F 74 °F (2010)
Min Temperature 20 °F 24 °F -4 °F (2003)
Degree Days  
Heating Degree Days 30 27  
Month to date heating degree days 179 156  
Since 1 July heating degree days 997 1023  
Cooling Degree Days 0 0  
Month to date cooling degree days 0 0  
Year to date cooling degree days 739 486  
Moisture  
Dew Point 18 °F    
Average Humidity 58    
Maximum Humidity 88    
Minimum Humidity 28    
Precipitation  
Precipitation 0.00 in 0.03 in 0.39 in (1986)
Month to date precipitation 0.13 0.18  
Year to date precipitation 7.44 12.52  
Sea Level Pressure  
Sea Level Pressure 30.25 in    
Wind  
Wind Speed 9 mph (NW)    
Max Wind Speed 29 mph    
Max Gust Speed 36 mph    
Visibility 10 miles    
Events      
T = Trace of Precipitation, MM = Missing Value Source: NWS Daily Summary

Daily Weather History Graph

Daily Weather History Graph

Search for Another Location

Airport or City:

Trip Planner

Search our weather history database for the weather conditions in past years. The results will help you decide how hot, cold, wet, or windy it might be!

Date:

Astronomy

Nov. 06, 2013 Rise Set
Actual Time 6:42 AM MST 4:47 PM MST
Civil Twilight 6:12 AM MST 5:17 PM MST
Nautical Twilight 5:38 AM MST 5:50 PM MST
Astronomical Twilight 5:05 AM MST 6:23 PM MST
Moon 10:01 AM MST (11/6) 7:52 PM MST (11/6)
Length of Visible Light 11h 04m
Length of Day
10h 05m
Waxing Crescent, 14% of the Moon is Illuminated
Nov 6
Waxing Crescent
Nov 9
First Quarter
Nov 17
Full
Nov 25
Last Quarter
Dec 2
New

Hourly Weather History & Observations

Time (MST) Temp. Windchill Dew Point Humidity Pressure Visibility Wind Dir Wind Speed Gust Speed Precip Events Conditions
12:53 AM 23.0 °F 18.4 °F 14.0 °F 68% 30.16 in 10.0 mi North 3.5 mph - N/A   Clear
1:53 AM 24.1 °F 18.2 °F 15.1 °F 69% 30.14 in 10.0 mi NNW 4.6 mph - N/A   Partly Cloudy
2:53 AM 30.0 °F 21.7 °F 16.0 °F 56% 30.14 in 10.0 mi WNW 9.2 mph - N/A   Mostly Cloudy
3:53 AM 30.0 °F - 14.0 °F 51% 30.14 in 10.0 mi Calm Calm - N/A   Clear
4:53 AM 27.0 °F 20.5 °F 16.0 °F 63% 30.19 in 10.0 mi North 5.8 mph - N/A   Partly Cloudy
5:53 AM 28.9 °F 22.8 °F 18.0 °F 64% 30.19 in 10.0 mi West 5.8 mph - N/A   Mostly Cloudy
6:53 AM 30.0 °F - 18.0 °F 61% 30.22 in 10.0 mi Calm Calm - N/A   Mostly Cloudy
7:53 AM 33.1 °F 30.0 °F 19.0 °F 56% 30.23 in 10.0 mi North 3.5 mph - N/A   Scattered Clouds
8:53 AM 39.0 °F 31.4 °F 19.9 °F 46% 30.24 in 10.0 mi West 12.7 mph - N/A   Scattered Clouds
9:53 AM 42.1 °F 32.8 °F 17.1 °F 37% 30.21 in 10.0 mi West 21.9 mph 32.2 mph N/A   Clear
10:53 AM 44.1 °F 35.2 °F 17.1 °F 34% 30.21 in 10.0 mi WNW 23.0 mph - N/A   Overcast
11:53 AM 46.9 °F - 17.1 °F 30% 30.19 in 10.0 mi WNW 20.7 mph 29.9 mph N/A   Clear
12:53 PM 48.0 °F - 17.1 °F 29% 30.17 in 10.0 mi WNW 24.2 mph 29.9 mph N/A   Mostly Cloudy
1:53 PM 46.0 °F 39.6 °F 18.0 °F 33% 30.19 in 10.0 mi WNW 15.0 mph 24.2 mph N/A   Overcast
2:53 PM 46.0 °F 40.6 °F 17.1 °F 31% 30.17 in 10.0 mi NW 11.5 mph 25.3 mph N/A   Overcast
3:53 PM 45.0 °F 36.9 °F 14.0 °F 29% 30.19 in 10.0 mi NNW 20.7 mph 25.3 mph N/A   Scattered Clouds
4:53 PM 39.9 °F 32.9 °F 14.0 °F 35% 30.25 in 10.0 mi NNW 11.5 mph - N/A   Clear
5:53 PM 35.1 °F 32.2 °F 24.1 °F 64% 30.31 in 10.0 mi Variable 3.5 mph - N/A   Clear
6:53 PM 28.9 °F - 21.9 °F 75% 30.37 in 10.0 mi Calm Calm - N/A   Clear
7:53 PM 30.9 °F 27.5 °F 24.1 °F 76% 30.38 in 10.0 mi West 3.5 mph - N/A   Overcast
8:53 PM 26.1 °F - 21.9 °F 84% 30.39 in 10.0 mi Calm Calm - N/A   Clear
9:53 PM 25.0 °F - 19.9 °F 81% 30.40 in 10.0 mi Calm Calm - N/A   Clear
10:53 PM 24.1 °F - 21.0 °F 88% 30.40 in 10.0 mi Calm Calm - N/A   Clear
11:53 PM 21.9 °F 17.2 °F 18.0 °F 85% 30.40 in 10.0 mi South 3.5 mph - N/A   Clear